Regional Weather Roundup
Issued by NWS

Home | Current Version | Previous Version | Text Only | Print | Product List | Glossary On
Versions: 1 2 3 4 5 6 7 8 9 10 11 12 13 14 15 16 17 18 19 20 21 22 23 24 25 26 27 28 29 30 31 32 33 34 35 36 37 38 39 40 41 42 43 44 45 46 47 48 49 50
000
ASUS43 KBIS 111920
RWRND

NORTH DAKOTA REGIONAL WEATHER ROUNDUP
NATIONAL WEATHER SERVICE BISMARCK ND
200 PM CDT FRI JUL 11 2014

NOTE: "FAIR" INDICATES FEW OR NO CLOUDS BELOW 12,000 FEET WITH NO
SIGNIFICANT WEATHER AND/OR OBSTRUCTIONS TO VISIBILITY.


NDZ001>003-009>011-017-112000-
NORTHWEST NORTH DAKOTA

CITY           SKY/WX    TMP DP  RH WIND       PRES   REMARKS
WILLISTON      SUNNY     78  52  40 N13       30.08R
MINOT          SUNNY     74  53  48 W16       30.02S
MINOT AFB      SUNNY     74  55  50 NW18      30.02S
$$

NDZ018>021-031>035-040>046-112000-
SOUTHWEST NORTH DAKOTA

CITY           SKY/WX    TMP DP  RH WIND       PRES   REMARKS
BISMARCK       MOSUNNY   80  50  34 VRB3      30.04R
DICKINSON      PTSUNNY   78  53  41 VRB6      30.07S
GARRISON         N/A     76  58  53 N7        30.04S
HETTINGER ARPT MOSUNNY   82  57  42 N12       30.08R
$$

NDZ004>008-012>016-024-026-027-054-112000-
NORTHEAST NORTH DAKOTA

CITY           SKY/WX    TMP DP  RH WIND       PRES   REMARKS
GRAND FORKS    MOSUNNY   83  62  49 NW6       29.90R
GRND FRKS AFB  SUNNY     80  60  49 N6        29.92R
DEVILS LAKE    MOSUNNY   81  57  44 NW14      29.95S
$$

NDZ022-023-025-028>030-036>039-047>053-112000-
SOUTHEAST NORTH DAKOTA

CITY           SKY/WX    TMP DP  RH WIND       PRES   REMARKS
FARGO          MOSUNNY   86  69  56 N7        29.90R HX  90
JAMESTOWN      SUNNY     82  61  48 N13       29.97R
$$




USA.gov is the U.S. government's official web portal to all federal, state and local government web resources and services.